STARLINK-11311, 61253

Orbit data source: Space-Track

STARLINK-11311, 61253 is a payload satellite owned by SpaceX/Seattle (US) in LEO that was launched on Wed, 25 Sep 2024 UTC via an FALCON 9 launch vehicle from the Air Force Western Test Range (AFWTR). Payload-class satellites include a variety of spacecraft equipped with specific instruments for various scientific and technological missions. These include communications satellites like Starlink; space stations such as the ISS; scientific satellites like the Hubble; Earth observation satellites from companies like Planet Labs, Umbra, and HawkEye 360; GPS; miniature CubeSats for education and research; and military/defense satellites.

Loading next visibility...
Identifier
61253, 2024-175L
Orbit
LEO
Last TLE update
1 day ago
Origin
Manufacturer
SpaceX/Seattle
Mission
Operational Commercial Communications
Bus & Motor
STARLINK V2M, Unknown motor
Mass
730 kg wet, ~700 kg dry
Launch date (UTC)
2024-09-25 (10 months ago)
Launch vehicle
FALCON 9
Launch site
Air Force Western Test Range (AFWTR)
Object type
Payload
Rocket body
Debris
Shape & HBR
Box + 2 Pan, 29 m
Radar Cross Section
36.964 m², Large (>1 m²)

Expand to show TLE details & history

TLE from 1 day ago
0 STARLINK-11311
1 61253U 24175L   25191.36295280  .00000469  00000-0  87337-5 0  9991
2 61253  53.1592 171.0417 0001054  85.0130 275.1008 15.69706617 46519
Epoch: 2025-07-10T08:42Z
TLE epoch observation values (Epoch: 2025-07-10T08:42:39.121Z)
Latitude
-0.00006°
Longitude
111.84834°
Altitude
360.588 km
Speed
7.694 km/s
True Right ascension
11h 24m 09s
True Declination
0° 00' 00"
Sunlit
Object was in daylight at epoch
Visualization orbit readout
Latitude
-52.79892°
Longitude
5.23764°
Altitude
378.764 km
Speed
7.682 km/s
Apparent Right ascension
08h 45m 25s
Apparent Declination
-63° 19' 35"
Sunlit
Object is in daylight
Visualization observer readout
Local Sidereal Time
00:06:24
Azimuth
145.447° SSE
Elevation
-52.52°
Doppler factor
1
Orbital elements
Apogee altitude
360.707 km
Perigee altitude
359.287 km
Semi-major axis
6,738.134 km
Eccentricity
0.00011
Inclination
53.1592°
RAAN
171.0417°
Arg. of periapsis
85.013°
True anomaly
Unknown
Mean anomaly
275.1008°
Eccentric anomaly
Unknown
Mean motion
3.92404 °/min
Orbital period
91.74 mins
BSTAR
0.0000087337
Loading maneuver chart data...
Loading SW <> Apogee altitude chart data...
Loading historical data...
Loading historical data...
Loading historical data...
Loading historical data...
Loading historical data...
Loading historical data...
Loading historical data...

STARLINK-11311 Visibility forecast

Observer location: undefined°, undefined°

Span
Click to sort rows by Start time (UTC) header in descending order
Start Az.
Max El. time (UTC)
Max El. Az.
Max El.
End time (UTC)
End Az.
5 mins2025-07-12 00:36:18.321Z206.592° SW2025-07-12 00:39:18.321Z115.816° SE32.394°2025-07-12 00:41:18.321Z66.43° ENE
|